[[{"header":{"parameterUnit":"m.s-1","parameterCategory":1,"la1":30.2991,"la2":30.254,"lo1":-89.0895,"lo2":-89.0444,"dy":0.0017,"dx":0.0017,"nx":28,"ny":28,"refTime":"2025-06-04T03:00:00:Z","depth":0,"parameterNumber":2,"parameterNumberName":"U-component_of_WINDS"},"data":[0,0,0,0,0,0,0,0,0,0,0,0,0,0,0,0,0,0,0,0,0,0,0,0,0,0,0,0,0,0,0,0,0,0,0,0,0,0,0,0,0,0,0,0,0,0,0,0,0,0,0,0,0,0,0,0,0,0,-3.8656,-3.8657,0,-3.8745,-3.8746,-3.8747,-3.8759,-3.8759,-3.8758,-3.8757,-3.8845,-3.8848,-3.8852,0,0,0,0,0,0,0,0,0,0,0,0,0,-3.8496,-3.8499,-3.8656,-3.8657,-3.8658,-3.8744,-3.8746,-3.8747,-3.876,-3.8759,-3.8758,-3.8757,-3.8844,-3.8848,-3.8852,0,0,0,0,0,0,0,0,0,0,0,0,0,-3.8573,-3.85,-3.8655,-3.8675,-3.8677,-3.8744,-3.8746,-3.8747,-3.876,-3.8759,-3.8757,-3.8756,-3.8843,-3.8848,-3.8852,-3.8905,0,0,-3.8867,-3.8869,0,0,0,0,0,0,0,0,-3.8569,-3.8579,-3.8671,-3.8673,-3.8677,-3.874,-3.8722,-3.88,-3.876,-3.8728,-3.8757,-3.8756,-3.8811,-3.8818,-3.8838,-3.8909,-3.8913,-3.8867,-3.887,-3.8872,-3.8873,0,0,0,0,0,0,0,-3.8563,-3.8575,-3.8691,-3.8672,-3.8676,-3.8679,-3.8688,-3.8737,-3.8775,-3.8731,-3.8732,-3.8743,-3.8812,-3.8833,-3.884,-3.8914,-3.8867,-3.8871,-3.8874,-3.8876,-3.9036,-3.9037,0,0,0,0,0,0,-3.8555,-3.8571,-3.8688,-3.8693,-3.8619,-3.8683,-3.8693,-3.8721,-3.8775,-3.8782,-3.8744,-3.8743,-3.8826,-3.8834,-3.8843,-3.8908,-3.8872,-3.8876,-3.8879,-3.9034,-3.9036,-3.9037,0,0,0,0,0,0,-3.8551,-3.8565,-3.8684,-3.8632,-3.8648,-3.8687,-3.8717,-3.8723,-3.8744,-3.8784,-3.8791,-3.8758,-3.8825,-3.8836,-3.889,-3.8912,-3.8878,-3.8882,-3.9032,-3.9035,-3.9037,-3.904,0,0,0,0,0,0,-3.8547,-3.8564,-3.8584,-3.8633,-3.8651,-3.873,-3.8719,-3.8726,-3.8752,-3.8752,-3.8799,-3.8806,-3.8825,-3.8883,-3.8895,-3.8917,-3.8886,-3.9031,-3.9033,-3.9036,-3.9038,-3.9042,-3.9045,0,0,0,0,0,-3.8541,-3.858,-3.8585,-3.8599,-3.8677,-3.8731,-3.8741,-3.8763,-3.8754,-3.8774,-3.8801,-3.8804,-3.8908,-3.8888,-3.8902,-3.8926,-3.9029,-3.9033,-3.9036,-3.9036,-3.9041,-3.9045,0,0,0,0,0,0,-3.8531,-3.8587,-3.8593,-3.8649,-3.8686,-3.8733,-3.876,-3.8767,-3.8806,-3.8804,-3.8829,-3.884,-3.8892,-3.8915,-3.8892,-3.8981,-3.8968,-3.8974,-3.8964,-3.8968,-3.8972,-3.8964,-3.889,0,0,0,0,0,-3.8536,-3.8576,-3.8623,-3.8668,-3.8686,-3.872,-3.8745,-3.8759,-3.8797,-3.8812,-3.8842,-3.8879,-3.892,-3.8946,-3.8986,-3.9042,-3.9053,-3.9066,-3.907,-3.9072,-3.9076,-3.9109,-3.9115,-3.9048,-3.9048,-3.9048,0,0,-3.8546,-3.8581,-3.8605,-3.8667,-3.8697,-3.8737,-3.8733,-3.8775,-3.8806,-3.8818,-3.887,-3.8895,-3.8937,-3.8993,-3.9019,-3.9013,-3.9098,-3.9077,-3.9079,-3.9081,-3.9113,-3.9119,-3.9125,-3.905,-3.905,-3.905,0,0,-3.8584,-3.8615,-3.8656,-3.8687,-3.8733,-3.8756,-3.8766,-3.8814,-3.883,-3.8884,-3.8895,-3.8932,-3.9001,-3.9031,-3.9056,-3.9109,-3.9113,-3.9122,-3.9139,-3.9171,-3.9176,-3.918,-3.9199,-3.9205,-3.9126,-3.9126,-3.9126,0,-3.8589,-3.8651,-3.8677,-3.872,-3.8747,-3.8763,-3.8805,-3.8833,-3.8889,-3.8908,-3.8902,-3.8991,-3.9021,-3.9084,-3.9097,-3.9117,-3.9129,-3.9114,-3.9173,-3.9178,-3.9183,-3.92,-3.9207,-3.9127,-3.9127,-3.9127,-3.9127,0,-3.8655,-3.8698,-3.8727,-3.8782,-3.8813,-3.8855,-3.8887,-3.8916,-3.8928,-3.8952,-3.9007,-3.9044,-3.9092,-3.9109,-3.9121,-3.9174,-3.9169,-3.9168,-3.9155,-3.9189,-3.9206,-3.9213,-3.9128,-3.9127,-3.9127,-3.9127,0,0,-3.8686,-3.8757,-3.8767,-3.8793,-3.8847,-3.888,-3.8924,-3.8972,-3.8996,-3.9036,-3.9072,-3.9133,-3.9133,-3.9161,-3.9177,-3.9205,-3.9244,-3.92,-3.9201,-3.9206,-3.9305,-3.9304,-3.9311,-3.9249,-3.925,-3.9252,-3.9301,0,-3.8728,-3.8807,-3.8833,-3.8898,-3.8938,-3.8956,-3.8994,-3.9031,-3.9056,-3.9093,-3.912,-3.9162,-3.9159,-3.9176,-3.9205,-3.9233,-3.9264,-3.923,-3.9282,-3.9284,-3.9269,-3.932,-3.9319,-3.9364,-3.9308,-3.9309,-3.931,0,-3.8788,-3.883,-3.8899,-3.8949,-3.8967,-3.9001,-3.9048,-3.9085,-3.9128,-3.9144,-3.9176,-3.9191,-3.9238,-3.9225,-3.929,-3.9266,-3.929,-3.9308,-3.931,-3.9313,-3.9297,-3.9323,-3.9379,-3.9384,-3.9321,-3.932,-3.9319,0,-3.8801,-3.8875,-3.8927,-3.8949,-3.9009,-3.9032,-3.9058,-3.9101,-3.9129,-3.917,-3.9189,-3.9235,-3.926,-3.9296,-3.9323,-3.9311,-3.9386,-3.9375,-3.9399,-3.9399,-3.9411,-3.941,-3.9469,-3.943,-3.943,-3.943,-3.943,0,-3.8845,-3.8886,-3.8934,-3.8965,-3.9013,-3.9043,-3.9089,-3.9116,-3.9154,-3.9191,-3.921,-3.9244,-3.9279,-3.9318,-3.934,-3.939,-3.9402,-3.9416,-3.942,-3.9413,-3.9411,-3.9426,-3.9423,-3.9432,-3.9432,-3.9431,-3.9431,0,-3.8866,-3.89,-3.8957,-3.9011,-3.9025,-3.9058,-3.9103,-3.9135,-3.9162,-3.9208,-3.9221,-3.9262,-3.9309,-3.9341,-3.9401,-3.9416,-3.947,-3.9476,-3.9456,-3.9458,-3.948,-3.9477,-3.9549,-3.956,-3.9516,-3.9516,-3.9517,0,-3.8891,-3.8923,-3.8981,-3.9008,-3.9034,-3.9077,-3.9106,-3.9139,-3.9168,-3.9222,-3.9247,-3.9296,-3.9336,-3.9411,-3.9446,-3.9493,-3.9498,-3.9521,-3.9505,-3.9496,-3.9497,-3.9493,-3.9497,-3.9522,-3.9522,-3.9522,-3.9523,0,-3.893,-3.8946,-3.8988,-3.9036,-3.9071,-3.9111,-3.915,-3.9171,-3.9211,-3.9243,-3.9293,-3.9324,-3.9387,-3.9435,-3.9486,-3.9513,-3.9524,-3.9528,-3.9536,-3.9527,-3.9513,-3.952,-3.946,-3.9525,-3.9525,-3.9525,-3.9525,-3.9525,-3.8953,-3.8983,-3.9029,-3.9075,-3.9109,-3.9146,-3.9179,-3.9211,-3.9252,-3.9306,-3.9323,-3.9375,-3.9419,-3.9488,-3.9517,-3.9557,-3.9555,-3.9566,-3.9569,-3.9571,-3.957,-3.9509,-3.9567,-3.9567,-3.9567,-3.9567,-3.9567,0,-3.8991,-3.9023,-3.9066,-3.9121,-3.9158,-3.9169,-3.9214,-3.9244,-3.9289,-3.933,-3.937,-3.9427,-3.9475,-3.9516,-3.9565,-3.959,-3.9596,-3.9602,-3.9599,-3.9605,-3.957,-3.9557,-3.9595,-3.9595,-3.9595,-3.9595,-3.9595,-3.9595,-3.9016,-3.9067,-3.9089,-3.9158,-3.919,-3.924,-3.9265,-3.93,-3.9333,-3.9396,-3.9437,-3.9463,-3.9504,-3.9558,-3.9602,-3.9613,-3.9629,-3.9633,-3.9645,-3.9611,-3.9607,-3.9604,-3.9592,-3.9637,-3.9637,-3.9676,-3.9677,-3.9677]},{"header":{"parameterUnit":"m.s-1","parameterCategory":1,"la1":30.2991,"la2":30.254,"lo1":-89.0895,"lo2":-89.0444,"dy":0.0017,"dx":0.0017,"nx":28,"ny":28,"refTime":"2025-06-04T03:00:00:Z","depth":0,"parameterNumber":3,"parameterNumberName":"V-component_of_WINDS"},"data":[0,0,0,0,0,0,0,0,0,0,0,0,0,0,0,0,0,0,0,0,0,0,0,0,0,0,0,0,0,0,0,0,0,0,0,0,0,0,0,0,0,0,0,0,0,0,0,0,0,0,0,0,0,0,0,0,0,0,2.7921,2.7922,0,2.7946,2.7946,2.7947,2.7997,2.7998,2.7999,2.8,2.802,2.8019,2.8019,0,0,0,0,0,0,0,0,0,0,0,0,0,2.7914,2.7913,2.7921,2.7922,2.7922,2.7946,2.7946,2.7947,2.7997,2.7999,2.8,2.8001,2.802,2.8019,2.8019,0,0,0,0,0,0,0,0,0,0,0,0,0,2.7925,2.7913,2.7921,2.795,2.7953,2.7946,2.7946,2.7947,2.7997,2.7999,2.8,2.8002,2.802,2.8019,2.8019,2.7984,0,0,2.8017,2.8016,0,0,0,0,0,0,0,0,2.7924,2.7925,2.7946,2.7948,2.7951,2.797,2.7951,2.7959,2.7997,2.798,2.8,2.8002,2.8002,2.8003,2.8004,2.7985,2.7985,2.8017,2.8016,2.8016,2.8016,0,0,0,0,0,0,0,2.7924,2.7925,2.7931,2.7946,2.7949,2.7961,2.7964,2.7953,2.7982,2.7982,2.7985,2.7988,2.8003,2.8004,2.8004,2.7986,2.8017,2.8016,2.8016,2.8015,2.794,2.7939,0,0,0,0,0,0,2.7919,2.7924,2.793,2.7932,2.7942,2.7959,2.7963,2.7963,2.7982,2.7987,2.7987,2.799,2.8005,2.8005,2.8005,2.7966,2.8016,2.8015,2.8015,2.7942,2.794,2.7938,0,0,0,0,0,0,2.7919,2.7919,2.7929,2.7929,2.7931,2.7958,2.7957,2.7962,2.7963,2.7986,2.7991,2.7982,2.8006,2.8006,2.7989,2.7968,2.8015,2.8014,2.7944,2.7941,2.7939,2.7887,0,0,0,0,0,0,2.7918,2.7919,2.7907,2.7928,2.7931,2.7914,2.7955,2.7962,2.7963,2.7967,2.7983,2.7987,2.8007,2.799,2.7989,2.7968,2.8014,2.7946,2.7943,2.794,2.7891,2.7884,2.7877,0,0,0,0,0,2.7918,2.7889,2.7906,2.7906,2.7916,2.7912,2.7914,2.7939,2.7961,2.7948,2.7963,2.7987,2.7971,2.7988,2.7987,2.7965,2.7947,2.7944,2.794,2.7894,2.7885,2.7877,0,0,0,0,0,0,2.7862,2.7893,2.7911,2.7889,2.7898,2.7921,2.7906,2.7928,2.793,2.7934,2.7964,2.7967,2.7946,2.7954,2.7973,2.7933,2.7963,2.7959,2.7928,2.792,2.7913,2.7911,2.8013,0,0,0,0,0,2.7847,2.7843,2.787,2.7848,2.7852,2.7878,2.7877,2.7896,2.7906,2.7909,2.7923,2.793,2.7927,2.7924,2.7922,2.7893,2.7897,2.7878,2.7871,2.7865,2.7861,2.7847,2.7839,2.7927,2.7927,2.7927,0,0,2.7816,2.7833,2.7828,2.7837,2.7846,2.784,2.7881,2.7872,2.7868,2.7907,2.7893,2.7904,2.7913,2.7891,2.7881,2.7897,2.7838,2.786,2.7855,2.7854,2.7842,2.7834,2.7826,2.7924,2.7925,2.7925,0,0,2.7757,2.7769,2.7753,2.7762,2.7777,2.7795,2.7791,2.7811,2.782,2.7807,2.7838,2.7832,2.7826,2.7832,2.7834,2.778,2.7802,2.7778,2.7741,2.7727,2.772,2.7714,2.7695,2.7688,2.7774,2.7774,2.7774,0,2.7716,2.771,2.7741,2.7731,2.7734,2.7773,2.7756,2.7763,2.7775,2.7776,2.7794,2.7788,2.7797,2.7777,2.7765,2.7765,2.7761,2.7776,2.7719,2.7713,2.7708,2.769,2.7683,2.7771,2.7772,2.7772,2.7772,0,2.7659,2.7654,2.7639,2.7653,2.7654,2.7641,2.7669,2.7666,2.7686,2.7702,2.7688,2.7701,2.7704,2.77,2.7718,2.7683,2.7692,2.7714,2.7745,2.7696,2.768,2.7673,2.7767,2.7768,2.7769,2.777,0,0,2.7562,2.7596,2.759,2.7597,2.7618,2.7614,2.7602,2.7607,2.7605,2.7612,2.7603,2.7598,2.762,2.7622,2.7641,2.7629,2.7586,2.7653,2.7653,2.764,2.7548,2.7531,2.7523,2.7601,2.76,2.7599,2.7548,0,2.7507,2.7492,2.752,2.7497,2.7493,2.7531,2.7521,2.7532,2.7547,2.7545,2.7561,2.7558,2.7586,2.7588,2.7578,2.7593,2.7568,2.7598,2.7592,2.7591,2.7588,2.7514,2.7496,2.7447,2.7541,2.754,2.754,0,2.744,2.7448,2.7425,2.7448,2.7448,2.7439,2.7446,2.7444,2.7457,2.7469,2.7474,2.7497,2.7487,2.7518,2.7503,2.7523,2.7523,2.753,2.7529,2.7528,2.7562,2.7512,2.7431,2.7424,2.753,2.753,2.7531,0,2.7372,2.7376,2.7364,2.7369,2.7396,2.7389,2.7399,2.7414,2.7416,2.7422,2.7423,2.7427,2.7429,2.7431,2.7455,2.7475,2.7438,2.747,2.7446,2.7446,2.7436,2.7436,2.7354,2.7436,2.7436,2.7437,2.7437,0,2.7307,2.7292,2.7334,2.7326,2.731,2.7343,2.7326,2.734,2.7353,2.7348,2.7381,2.7375,2.7407,2.7405,2.7423,2.7409,2.7409,2.7418,2.7423,2.7415,2.7414,2.7414,2.7418,2.7435,2.7435,2.7435,2.7436,0,2.7228,2.7256,2.7245,2.7273,2.7279,2.7266,2.7289,2.7283,2.7301,2.7294,2.7294,2.7322,2.7321,2.7346,2.7349,2.7361,2.7339,2.735,2.7335,2.7338,2.7313,2.7315,2.7228,2.7218,2.7307,2.7306,2.7305,0,2.7184,2.7174,2.7202,2.7202,2.7212,2.7211,2.7214,2.7246,2.7247,2.7262,2.7254,2.7256,2.7259,2.7255,2.7275,2.7278,2.7289,2.7258,2.7289,2.7282,2.7288,2.7289,2.7288,2.7251,2.725,2.7249,2.7248,0,2.7104,2.7119,2.7123,2.7132,2.7135,2.7143,2.7152,2.715,2.7185,2.7185,2.7186,2.7189,2.7193,2.7195,2.7202,2.7211,2.7235,2.7239,2.7234,2.7225,2.7217,2.7221,2.7317,2.724,2.7241,2.7242,2.7242,2.7243,2.7041,2.7034,2.7053,2.7057,2.7068,2.7077,2.7073,2.7092,2.7094,2.7102,2.7121,2.7118,2.7133,2.7145,2.7153,2.7151,2.7166,2.7158,2.7156,2.7153,2.7149,2.7218,2.7152,2.7152,2.7152,2.7153,2.7153,0,2.6963,2.6978,2.6981,2.6995,2.6998,2.7023,2.7036,2.7036,2.7034,2.7047,2.7051,2.7052,2.7054,2.7075,2.7079,2.7074,2.7085,2.7073,2.7074,2.7076,2.7135,2.7139,2.7064,2.7065,2.7065,2.7065,2.7065,2.7065,2.6922,2.6912,2.693,2.6926,2.694,2.694,2.6945,2.6954,2.6964,2.6965,2.6968,2.6983,2.6999,2.7005,2.7008,2.7014,2.7014,2.6999,2.7008,2.7063,2.7071,2.7079,2.7084,2.6999,2.6998,2.6949,2.6949,2.6949]}]]